(321880) = 2010 SS19

Discovered at Mount Lemmon on 2006-10-02 by Mt. Lemmon Survey.

Orbit

Orbit type: Main Belt

Note: WebGL enabled browser required.

epoch2024-03-31.0
epoch JD2460400.5
perihelion date2020-08-18.17227
perihelion JD2459079.67227
argument of perihelion (°)295.04252
ascending node (°)200.87479
inclination (°)12.96215
eccentricity0.1234479
perihelion distance (AU)2.3092315
Tisserand w.r.t. Jupiter3.4
ΔV w.r.t. Earth (km/sec)10.3
semimajor axis (AU)2.6344487
mean anomaly (°)304.44959
mean daily motion (°/day)0.23049910
aphelion distance (AU)2.960
period (years)4.28
P-vector [x]-0.71011031
P-vector [y]0.69933431
P-vector [z]0.08169992
Q-vector [x]-0.69953919
Q-vector [y]-0.68758220
Q-vector [z]-0.19461666
absolute magnitude17.03
phase slope0.15
uncertainty0
referenceMPEC 2024-E02
observations used214
oppositions13
arc length (days)10091
first opposition used1996
last opposition used2024
residual rms (arc-secs)0.84
perturbers coarse indicatorM-v
perturbers precise indicator003Ek
first observation date used1996-06-15.0
last observation date used2024-01-31.0
computer nameMPCLINUX
JD of orbit computation2456937.257839
perihelion JD uncertainty (days)1.4333E-04
argument of perihelion uncertainty (°)5.4523E-05
ascending node uncertainty (°)3.7760E-05
inclination uncertainty (°)1.1505E-05
eccentricity uncertainty 1.5384E-07
perihelion distance uncertainty (AU)4.2122E-07
Minimum Orbit Intersection Distances (in AU)
for orbit epoch: 2460400.5, reference: E2024-E02
Mercury1.97709
Venus1.62354
Earth1.35444
Mars0.74815
Jupiter2.14141
Saturn6.57017
Uranus16.0849
Neptune27.0511

Observations

217 total observations over interval: 1996 06 15.36610 – 2024 01 31.06032
These data are available for download (format description).

Date (UT) J2000 RA J2000 Dec Magn Location Ref
1996 06 15.36610 18 03 13.97 -05 02 55.4 21.0 V 691 – Steward Observatory, Kitt Peak-Spacewatch MPS 362789
2001 09 20.269740 21 37 46.695 -00 14 46.86 21.77 V 645 – Apache Point-Sloan Digital Sky Survey MPS 362789
2001 09 20.273212 21 37 46.591 -00 14 48.57 22.73   645 – Apache Point-Sloan Digital Sky Survey MPS 362789
2006 10 02.39910 02 48 56.48 +12 36 07.9 20.9 V G96 – Mt. Lemmon Survey MPS 357545
2006 10 02.40577 02 48 56.34 +12 36 05.3 20.9 V G96 – Mt. Lemmon Survey MPS 357545
2006 10 02.41256 02 48 56.16 +12 36 02.0 21.0 V G96 – Mt. Lemmon Survey MPS 357545
2006 10 02.41925 02 48 55.98 +12 35 59.0 20.7 V G96 – Mt. Lemmon Survey MPS 357545
2006 11 23.23737 02 11 38.68 +05 18 02.7 20.6 V G96 – Mt. Lemmon Survey MPS 357545
2006 11 23.24471 02 11 38.36 +05 17 59.7 20.5 V G96 – Mt. Lemmon Survey MPS 357545
2006 11 23.25214 02 11 38.07 +05 17 57.3 20.9 V G96 – Mt. Lemmon Survey MPS 357545
2006 11 23.25947 02 11 37.82 +05 17 53.9 20.9 V G96 – Mt. Lemmon Survey MPS 357545
2008 03 12.30645 11 48 26.53 -08 42 39.6 20.3 V 703 – Catalina Sky Survey MPS 362789
2008 03 12.31182 11 48 26.35 -08 42 35.6 20.2 V 703 – Catalina Sky Survey MPS 362789
2008 03 12.31721 11 48 26.13 -08 42 32.0 20.0 V 703 – Catalina Sky Survey MPS 362789
2008 03 12.32258 11 48 25.92 -08 42 28.9 20.0 V 703 – Catalina Sky Survey MPS 362789
2010 09 28.24985 00 42 05.12 +08 41 11.6   691 – Steward Observatory, Kitt Peak-Spacewatch MPS 349663
2010 09 28.26750 00 42 04.29 +08 41 01.5   691 – Steward Observatory, Kitt Peak-Spacewatch MPS 349663
2010 09 28.28516 00 42 03.46 +08 40 52.3   691 – Steward Observatory, Kitt Peak-Spacewatch MPS 349663
2010 10 02.26308 00 38 58.99 +08 04 10.4 20.8 V 691 – Steward Observatory, Kitt Peak-Spacewatch MPS 349663
2010 10 02.28070 00 38 58.07 +08 04 01.3 20.7 V 691 – Steward Observatory, Kitt Peak-Spacewatch MPS 349663
2010 10 02.29834 00 38 57.30 +08 03 51.1 20.7 V 691 – Steward Observatory, Kitt Peak-Spacewatch MPS 349663
2010 10 08.22580 00 34 20.02 +07 07 22.7 20.7 V 691 – Steward Observatory, Kitt Peak-Spacewatch MPS 349663
2010 10 08.24345 00 34 19.19 +07 07 12.3 20.7 V 691 – Steward Observatory, Kitt Peak-Spacewatch MPS 349663
2010 10 08.26109 00 34 18.33 +07 07 02.3 21.0 V 691 – Steward Observatory, Kitt Peak-Spacewatch MPS 349663
2010 10 12.21854 00 31 16.89 +06 28 54.9 20.9 V 691 – Steward Observatory, Kitt Peak-Spacewatch MPS 351554
2010 10 12.23622 00 31 16.11 +06 28 44.7 20.9 V 691 – Steward Observatory, Kitt Peak-Spacewatch MPS 351554
2010 10 12.25389 00 31 15.28 +06 28 34.9 20.7 V 691 – Steward Observatory, Kitt Peak-Spacewatch MPS 351554
2010 11 11.14108 00 15 25.16 +02 22 13.0 22.6 V G96 – Mt. Lemmon Survey MPS 355569
2010 11 11.14690 00 15 25.09 +02 22 10.6 21.7 V G96 – Mt. Lemmon Survey MPS 355569
2010 11 11.15274 00 15 25.05 +02 22 08.5 21.9 V G96 – Mt. Lemmon Survey MPS 355569
2010 11 11.15855 00 15 24.98 +02 22 05.9 21.7 V G96 – Mt. Lemmon Survey MPS 355569
2012 01 20.29079 09 08 29.18 -04 50 10.3 20.2 V 703 – Catalina Sky Survey MPS 407778
2012 01 20.29587 09 08 29.00 -04 50 11.2 20.7 V 703 – Catalina Sky Survey MPS 407778
2012 01 20.30095 09 08 28.78 -04 50 11.1 20.2 V 703 – Catalina Sky Survey MPS 407778
2012 01 20.30612 09 08 28.53 -04 50 10.3 19.9 V 703 – Catalina Sky Survey MPS 407778
2012 02 12.42004 08 49 43.647 -02 51 00.46 20.1 r F51 – Pan-STARRS 1, Haleakala MPS 411623
2012 02 12.43179 08 49 43.053 -02 50 54.71 20.4 r F51 – Pan-STARRS 1, Haleakala MPS 411623
2012 02 12.48335 08 49 40.486 -02 50 29.84 19.9 i F51 – Pan-STARRS 1, Haleakala MPS 411624
2012 02 16.43669 08 46 40.118 -02 17 17.77 21.0 g F51 – Pan-STARRS 1, Haleakala MPS 413058
2012 02 16.44916 08 46 39.542 -02 17 11.38 20.8 g F51 – Pan-STARRS 1, Haleakala MPS 413058
2014 08 31.40600 23 06 46.840 +06 38 15.43 21.1 w F51 – Pan-STARRS 1, Haleakala MPS 531323
2014 08 31.41769 23 06 46.291 +06 38 10.35 21.4 w F51 – Pan-STARRS 1, Haleakala MPS 531323
2014 08 31.44118 23 06 45.200 +06 38 00.53 21.0 w F51 – Pan-STARRS 1, Haleakala MPS 531323
2014 09 28.36819 22 46 19.405 +02 41 56.89 21.4 w F51 – Pan-STARRS 1, Haleakala MPS 538694
2014 09 28.38142 22 46 18.896 +02 41 49.71 21.3 w F51 – Pan-STARRS 1, Haleakala MPS 538694
2014 09 28.39468 22 46 18.392 +02 41 42.70 21.3 w F51 – Pan-STARRS 1, Haleakala MPS 538694
2014 09 28.40798 22 46 17.881 +02 41 35.48 21.3 w F51 – Pan-STARRS 1, Haleakala MPS 538694
2016 02 06.34994 05 52 02.361 +04 15 07.51 20.9 w F51 – Pan-STARRS 1, Haleakala MPS 682106
2016 02 06.36074 05 52 02.277 +04 15 11.47 20.8 w F51 – Pan-STARRS 1, Haleakala MPS 682106
2016 02 06.37153 05 52 02.193 +04 15 15.22 20.7 w F51 – Pan-STARRS 1, Haleakala MPS 682106
2017 04 27.47620 15 54 15.833 -09 51 22.25 20.6 w F51 – Pan-STARRS 1, Haleakala MPS 794529
2017 04 27.47684 15 54 15.805 -09 51 21.85 20.6 w F51 – Pan-STARRS 1, Haleakala MPS 794529
2017 04 27.49070 15 54 15.200 -09 51 14.92 20.6 w F51 – Pan-STARRS 1, Haleakala MPS 794529
2017 04 27.49135 15 54 15.170 -09 51 14.66 20.8 w F51 – Pan-STARRS 1, Haleakala MPS 794529
2017 04 27.50522 15 54 14.565 -09 51 07.80 20.8 w F51 – Pan-STARRS 1, Haleakala MPS 794529
2017 04 27.50587 15 54 14.535 -09 51 07.51 20.7 w F51 – Pan-STARRS 1, Haleakala MPS 794529
2017 04 27.51976 15 54 13.921 -09 51 00.51 20.7 w F51 – Pan-STARRS 1, Haleakala MPS 794529
2017 04 27.52041 15 54 13.890 -09 51 00.24 20.6 w F51 – Pan-STARRS 1, Haleakala MPS 794529
2017 04 30.38261 15 52 10.24 -09 27 22.0 20.5 V 691 – Steward Observatory, Kitt Peak-Spacewatch MPS 796306
2017 04 30.39303 15 52 09.72 -09 27 16.9 20.6 V 691 – Steward Observatory, Kitt Peak-Spacewatch MPS 796306
2017 04 30.40337 15 52 09.28 -09 27 12.2 20.2 V 691 – Steward Observatory, Kitt Peak-Spacewatch MPS 796306
2017 05 02.41131 15 50 38.08 -09 10 44.0 20.3 V G96 – Mt. Lemmon Survey MPS 796306
2017 05 02.41554 15 50 37.85 -09 10 41.9 20.3 V G96 – Mt. Lemmon Survey MPS 796306
2017 05 02.41977 15 50 37.66 -09 10 40.0 20.4 V G96 – Mt. Lemmon Survey MPS 796306
2017 05 02.42400 15 50 37.45 -09 10 38.0 20.3 V G96 – Mt. Lemmon Survey MPS 796306
2017 05 16.26077 15 39 09.51 -07 24 11.3 20.9 V G96 – Mt. Lemmon Survey MPS 797728
2017 05 16.26603 15 39 09.25 -07 24 09.3 21.0 V G96 – Mt. Lemmon Survey MPS 797728
2017 05 16.27029 15 39 09.00 -07 24 07.3 20.5 V G96 – Mt. Lemmon Survey MPS 797728
2017 05 16.27455 15 39 08.81 -07 24 04.6 20.8 V G96 – Mt. Lemmon Survey MPS 797728
2017 05 27.37545 15 29 55.170 -06 14 42.06 20.9 w F51 – Pan-STARRS 1, Haleakala MPS 800532
2017 05 27.38610 15 29 54.637 -06 14 38.51 20.8 w F51 – Pan-STARRS 1, Haleakala MPS 800532
2017 05 27.39677 15 29 54.113 -06 14 35.16 20.7 w F51 – Pan-STARRS 1, Haleakala MPS 800532
2019 09 01.44783 04 03 51.30 +15 53 23.3 22.6 G G96 – Mt. Lemmon Survey MPS 1030841
2019 09 01.45307 04 03 51.61 +15 53 22.7   G96 – Mt. Lemmon Survey MPS 1030841
2019 09 01.45831 04 03 51.83 +15 53 21.9 21.9 G G96 – Mt. Lemmon Survey MPS 1030841
2019 09 01.46355 04 03 52.08 +15 53 21.8 21.9 G G96 – Mt. Lemmon Survey MPS 1030841
2019 09 30.39683 04 20 25.99 +13 49 02.7 21.5 G G96 – Mt. Lemmon Survey MPS 1055488
2019 09 30.40752 04 20 26.09 +13 48 58.8 21.2 G G96 – Mt. Lemmon Survey MPS 1055488
2019 09 30.41312 04 20 26.17 +13 48 56.8 21.0 G G96 – Mt. Lemmon Survey MPS 1055488
2019 09 30.41871 04 20 26.26 +13 48 55.2 20.8 G G96 – Mt. Lemmon Survey MPS 1055488
2019 10 09.50400 04 21 25.133 +12 49 29.79 21.0 i F51 – Pan-STARRS 1, Haleakala MPS 1063919
2019 10 09.51614 04 21 25.106 +12 49 24.52 21.1 i F51 – Pan-STARRS 1, Haleakala MPS 1063919
2019 10 09.52824 04 21 25.076 +12 49 19.32 20.9 i F51 – Pan-STARRS 1, Haleakala MPS 1063919
2019 10 09.54036 04 21 25.035 +12 49 14.46 20.9 i F51 – Pan-STARRS 1, Haleakala MPS 1063919
2019 10 26.38782 04 17 10.07 +10 38 20.6 20.9 G G96 – Mt. Lemmon Survey MPS 1074085
2019 10 26.39295 04 17 09.93 +10 38 17.7   G96 – Mt. Lemmon Survey MPS 1074085
2019 10 26.39809 04 17 09.72 +10 38 15.3 20.4 G G96 – Mt. Lemmon Survey MPS 1074085
2019 10 26.40324 04 17 09.59 +10 38 13.1   G96 – Mt. Lemmon Survey MPS 1074085
2019 10 31.42973 04 14 25.307 +09 55 45.86 20.7 w F51 – Pan-STARRS 1, Haleakala MPS 1074085
2019 10 31.44130 04 14 24.859 +09 55 40.01 20.7 w F51 – Pan-STARRS 1, Haleakala MPS 1074085
